Temperature
10 10 10 9 9 9 9 9 8 8 8 8 8 7 7 7 7 7 7 7 7 7 6 6 6 6 6 6 5 5 5 4 4 4 4 3 3 3 3 3 3 3 3
9 9 9 8 8 8 8 8 7 7 7 7 7 6 6 6 6 6 6 6 6 6 5 5 5 5 5 5 5 4 4 4 3 3 3 3 3 3 2 2 2 2 2
8 8 8 8 7 7 7 6 6 6 6 6 6 5 5 5 5 5 5 5 5 5 5 4 4 4 4 4 4 4 3 3 3 3 2 2 2 2 1 1 1 1 1
8 7 7 7 6 6 6 5 5 5 5 5 5 4 4 4 4 4 4 4 4 4 4 4 4 4 3 3 3 3 3 3 2 2 1 1 1 1 0 0 0 0 0
7 7 6 6 6 5 5 5 4 4 4 4 4 4 3 3 3 3 3 3 3 3 3 3 3 3 3 2 2 2 2 2 1 1 1 0 -0 -0 -1 -1 -1 -1 -1
6 6 5 5 5 4 4 3 3 3 3 3 3 3 3 3 3 3 3 3 2 2 2 2 2 2 2 2 2 2 1 1 1 0 -0 -1 -1 -1 -1 -2 -2 -2 -3
6 5 5 4 4 4 3 3 2 2 2 2 2 2 2 2 2 2 2 2 2 2 2 1 1 1 1 1 1 1 1 0 0 -0 -1 -2 -2 -2 -2 -2 -2 -3 -3
6 5 4 4 3 3 2 2 1 1 1 1 1 1 1 1 1 1 1 1 1 1 1 1 1 0 0 0 -0 -0 -0 -0 -1 -1 -2 -2 -2 -2 -3 -3 -3 -3 -3
5 5 4 3 3 2 2 1 1 1 0 0 0 0 0 0 0 1 1 1 1 0 0 0 -0 -0 -0 -1 -1 -1 -1 -1 -2 -2 -2 -2 -3 -3 -3 -3 -4 -4 -4
5 4 3 3 2 2 1 1 0 -0 -0 -0 -0 -0 -0 -0 -0 -0 -0 -0 -0 -0 -0 -1 -1 -1 -1 -1 -1 -2 -2 -2 -2 -3 -3 -3 -3 -3 -4 -4 -4 -4 -4
4 3 3 2 2 1 0 0 -0 -1 -1 -1 -1 -1 -1 -1 -1 -1 -1 -1 -1 -1 -1 -1 -1 -1 -1 -2 -2 -2 -2 -3 -3 -3 -3 -4 -4 -4 -4 -4 -4 -5 -5
4 3 2 2 1 1 -0 -0 -1 -1 -1 -1 -1 -1 -1 -1 -1 -1 -1 -1 -1 -1 -1 -1 -2 -2 -2 -2 -2 -3 -3 -3 -3 -4 -4 -4 -4 -4 -4 -4 -5 -5 -5
3 2 2 1 1 0 -0 -1 -1 -1 -1 -1 -1 -1 -1 -1 -1 -1 -1 -1 -1 -1 -2 -2 -2 -2 -2 -2 -3 -3 -3 -3 -4 -4 -4 -4 -4 -4 -5 -5 -5 -5 -5
3 2 1 1 0 -0 -1 -1 -1 -1 -1 -1 -1 -1 -1 -1 -1 -1 -1 -1 -1 -2 -2 -2 -2 -2 -3 -3 -3 -3 -3 -4 -4 -4 -4 -4 -5 -5 -5 -5 -5 -5 -5
2 1 1 0 -0 -0 -1 -1 -1 -0 -1 -1 -1 -1 -1 -1 -1 -1 -1 -1 -2 -2 -2 -2 -2 -3 -3 -3 -3 -3 -4 -4 -4 -4 -5 -5 -5 -5 -5 -6 -6 -6 -6
2 1 1 0 -0 -0 -0 -1 -1 -1 -1 -1 -1 -1 -1 -1 -1 -1 -1 -2 -2 -2 -3 -2 -2 -3 -3 -3 -3 -3 -4 -4 -4 -4 -5 -5 -5 -5 -6 -6 -6 -6 -7
1 1 1 0 -0 -0 -0 -0 -1 -1 -1 -1 -1 -1 -1 -1 -1 -1 -2 -2 -2 -3 -3 -2 -2 -3 -3 -3 -3 -4 -4 -4 -4 -5 -5 -5 -6 -6 -6 -6 -7 -7 -7
1 1 0 0 0 -0 -0 -1 -1 -1 -1 -1 -1 -1 -1 -1 -1 -2 -2 -2 -2 -2 -2 -2 -2 -2 -3 -3 -3 -4 -4 -4 -4 -5 -5 -5 -6 -6 -6 -7 -7 -7 -8
1 1 0 0 -0 -0 -1 -1 -1 -1 -1 -1 -1 -1 -1 -2 -2 -2 -2 -2 -2 -2 -2 -2 -2 -3 -3 -3 -3 -4 -4 -4 -5 -5 -5 -6 -6 -6 -7 -7 -7 -8 -8
1 0 0 0 -0 -0 -1 -1 -1 -1 -1 -1 -1 -1 -1 -2 -2 -2 -2 -2 -2 -2 -2 -2 -2 -3 -3 -3 -4 -4 -4 -4 -5 -5 -5 -6 -6 -7 -7 -7 -7 -8 -8
0 0 -0 -0 -0 -1 -1 -1 -1 -1 -1 -1 -1 -1 -1 -1 -2 -2 -2 -2 -2 -2 -2 -2 -2 -3 -3 -3 -4 -4 -4 -4 -5 -5 -6 -6 -6 -7 -7 -7 -8 -8 -8
-0 -0 -0 -0 -1 -1 -1 -1 -1 -1 -1 -1 -1 -1 -2 -2 -2 -2 -2 -2 -2 -2 -2 -2 -2 -3 -3 -3 -4 -4 -4 -5 -5 -5 -6 -6 -7 -7 -7 -8 -8 -8 -8
-0 -1 -1 -1 -1 -1 -1 -2 -2 -2 -1 -1 -1 -1 -2 -2 -2 -2 -2 -2 -2 -2 -2 -3 -3 -3 -3 -3 -4 -4 -4 -5 -5 -6 -6 -6 -7 -7 -8 -8 -8 -8 -9
-1 -1 -1 -1 -1 -1 -2 -2 -2 -2 -2 -2 -2 -2 -2 -2 -2 -2 -2 -2 -2 -2 -3 -3 -3 -3 -3 -4 -4 -4 -5 -5 -6 -6 -6 -7 -7 -7 -8 -8 -8 -9 -9
-1 -1 -2 -2 -2 -2 -2 -2 -2 -2 -2 -2 -2 -2 -2 -2 -2 -3 -3 -3 -3 -3 -3 -3 -3 -4 -4 -4 -4 -5 -5 -5 -6 -6 -7 -7 -7 -8 -8 -8 -9 -9 -9
-2 -2 -2 -2 -2 -2 -3 -3 -3 -3 -3 -3 -3 -3 -3 -3 -3 -3 -3 -3 -3 -3 -3 -4 -4 -4 -4 -4 -5 -5 -5 -6 -6 -7 -7 -7 -8 -8 -8 -9 -9 -9 -9
Wind_Speed
5 4 4 3 3 2 2 1 1 1 1 1 1 1 1 2 2 2 3 3 4 4 4 4 5 4 3 3 3 2 2 0 1 1 2 3 4 5 6 7 8 8 9
5 5 4 4 3 3 2 2 1 1 1 1 1 2 2 2 3 3 4 4 5 5 5 6 6 5 5 4 4 4 3 3 1 2 1 2 3 4 5 5 6 6 7
6 6 5 4 4 3 3 2 2 2 2 2 2 3 3 3 4 4 5 6 6 6 6 6 6 6 6 5 5 4 3 3 2 2 2 1 2 3 3 4 4 5 6
7 6 6 5 4 4 3 3 3 3 3 3 3 4 4 4 4 5 6 6 7 7 7 7 6 6 6 5 4 4 4 4 4 3 2 2 2 2 2 3 3 4 4
8 7 6 5 5 5 4 4 4 4 3 4 4 4 4 4 4 5 5 6 7 7 7 7 7 8 7 6 4 4 3 3 3 3 2 1 2 2 2 3 4 4 2
9 8 7 7 6 6 5 5 5 4 4 4 4 4 4 4 6 6 6 6 6 6 6 6 6 6 7 8 8 8 6 3 3 2 1 1 1 2 2 3 3 4 2
10 9 8 8 7 7 6 6 6 5 5 4 4 4 5 6 7 7 7 5 5 5 4 4 4 4 5 5 6 7 7 7 5 2 1 1 1 2 2 3 3 4 4
10 10 9 9 8 8 7 7 6 5 5 4 4 4 4 5 7 7 7 5 5 4 3 3 3 3 3 3 3 4 4 4 4 2 2 1 1 2 2 3 4 5 5
11 11 10 10 9 9 8 8 6 6 5 5 4 4 4 5 6 7 6 4 4 3 3 2 2 2 3 2 2 2 2 2 3 3 3 2 2 2 3 3 3 4 3
11 11 10 10 10 9 8 8 6 6 6 5 5 4 5 5 6 7 6 3 3 3 3 2 1 1 2 2 1 1 1 1 0 0 1 1 0 0 2 2 2 3 2
10 10 10 10 9 9 8 7 7 6 6 6 5 5 5 5 6 7 7 3 3 3 3 3 2 2 2 2 2 2 1 1 2 2 2 2 2 1 1 2 2 2 3
10 10 10 9 8 8 8 8 8 8 7 7 6 6 5 5 6 7 8 7 5 4 3 3 3 3 3 3 3 2 2 3 2 2 3 3 2 2 2 3 4 5 6
10 10 9 9 9 9 9 9 8 8 7 7 6 6 6 5 6 9 9 9 8 5 4 4 4 4 4 4 4 4 4 3 3 3 4 3 3 3 3 4 5 6 8
10 10 9 9 9 8 8 8 8 8 8 7 7 7 6 6 6 6 7 7 8 7 5 5 6 6 5 5 4 4 4 4 4 4 4 3 3 3 4 4 4 4 5
10 9 9 9 9 9 8 8 9 9 9 9 8 7 7 7 9 11 8 7 6 6 5 5 5 5 5 5 5 5 5 4 5 5 4 4 4 4 4 4 4 4 5
9 9 8 8 8 8 8 7 10 10 12 14 11 9 8 9 8 12 14 12 11 10 7 6 6 6 6 6 6 6 6 6 5 5 5 5 5 5 5 5 5 6 7
9 9 8 8 8 8 8 8 7 9 12 15 16 15 13 11 12 12 13 13 13 12 9 8 7 7 7 7 6 6 6 6 5 6 6 6 6 6 6 6 6 6 7
9 9 9 8 8 8 8 8 7 7 7 8 12 17 17 16 15 14 14 12 10 11 9 9 8 8 7 7 7 7 6 6 6 6 7 6 6 6 6 7 7 7 7
8 7 7 7 7 8 8 8 7 8 8 7 6 9 14 15 16 16 14 11 10 10 10 10 9 9 8 8 8 7 7 7 7 7 7 7 7 7 7 7 7 10 9
7 9 9 7 7 7 7 8 8 8 8 8 8 8 8 9 9 10 12 11 11 10 10 10 9 9 9 8 8 8 8 8 8 8 8 7 7 7 8 9 8 8 8
6 7 11 8 7 8 8 9 9 9 9 9 9 9 12 9 10 10 10 11 11 11 11 10 9 9 9 8 8 9 10 8 8 8 8 8 8 8 8 8 8 9 9
5 6 7 7 7 7 8 8 8 9 9 10 8 9 15 11 9 10 10 10 11 10 10 9 9 9 9 9 9 9 9 9 9 8 8 8 8 8 8 8 9 9 9
5 6 6 7 7 9 9 8 8 8 9 9 8 8 8 10 10 10 10 10 9 9 9 9 10 9 10 11 11 10 10 10 9 9 9 8 8 8 8 9 10 10 10
6 6 6 6 7 7 8 8 8 9 9 9 8 8 9 9 10 11 10 9 9 9 9 10 10 12 13 12 12 13 14 14 12 11 12 10 9 9 9 9 10 11 11
5 6 6 6 7 7 7 8 8 8 9 9 9 9 9 9 10 10 9 9 9 10 11 11 10 12 14 16 15 14 16 17 16 13 12 10 11 11 10 11 10 11 11
4 5 5 5 6 7 7 8 8 8 8 8 8 9 9 9 9 9 9 8 9 9 10 10 12 14 14 15 17 18 18 19 19 18 14 10 11 11 11 10 12 12 12
Wind_Direction
150 144 142 134 130 133 132 123 114 93 71 56 47 53 56 57 67 92 94 95 97 90 84 86 81 73 75 62 59 62 55 9 185 107 52 24 23 23 24 26 25 25 28
157 154 149 144 146 149 140 127 118 108 89 83 89 91 80 75 80 96 98 94 97 94 90 90 83 79 75 64 62 63 60 45 96 136 75 33 30 22 19 23 22 21 23
164 163 161 162 163 158 146 133 125 120 112 103 100 96 92 87 88 92 97 95 93 90 89 88 84 81 75 66 63 64 61 58 60 112 96 55 33 20 10 16 18 16 17
171 173 174 172 166 156 147 142 134 127 120 111 104 99 97 96 96 100 102 102 97 89 82 81 78 78 78 75 69 65 67 76 86 101 100 78 45 20 2 1 359 3 0
177 179 176 170 162 158 156 149 140 132 124 121 117 112 107 103 103 110 110 108 104 96 85 80 76 73 68 66 66 64 66 76 87 96 97 86 53 21 10 356 340 336 346
181 180 172 171 169 168 164 157 149 141 136 130 123 121 115 106 112 114 114 111 109 108 101 92 86 80 77 74 68 61 54 64 80 88 95 91 48 17 359 346 338 335 330
183 178 174 175 175 172 167 163 160 154 146 137 131 128 120 118 122 120 115 116 113 109 110 108 96 83 75 80 81 80 70 60 49 47 86 56 22 360 343 331 336 324 313
182 180 178 178 177 174 172 170 166 161 155 148 141 138 131 127 130 130 128 119 116 114 113 112 114 110 90 80 87 80 73 66 54 43 50 32 8 345 322 303 304 300 293
186 184 182 181 179 178 179 175 171 168 161 159 155 153 151 143 144 148 149 140 136 135 133 131 126 126 121 128 110 97 92 86 76 56 42 39 24 358 332 303 306 309 305
188 184 181 182 183 183 180 175 173 172 170 167 165 171 174 171 163 169 175 166 165 164 169 172 181 185 153 189 208 198 202 115 113 175 188 162 287 43 339 308 301 292 297
178 176 178 182 184 181 176 174 172 174 173 176 177 183 191 193 186 190 194 199 194 191 196 199 195 213 228 227 251 251 258 269 256 265 265 263 265 272 287 300 292 272 273
170 174 179 181 179 176 175 175 177 178 182 186 190 195 202 203 209 206 207 214 215 213 214 214 209 223 242 240 246 248 236 244 254 258 262 265 273 281 290 291 284 273 263
173 178 180 181 181 178 180 180 181 188 193 195 199 205 206 205 210 216 218 218 217 224 224 222 229 231 237 237 237 237 233 242 247 251 257 263 269 276 281 281 277 273 270
180 181 181 183 184 184 187 189 192 195 199 202 205 210 209 208 208 207 211 216 218 222 224 219 226 229 236 243 234 229 235 245 251 257 260 262 258 258 263 271 280 289 286
185 185 186 189 188 190 197 201 203 208 207 205 208 209 208 215 214 207 205 209 211 213 211 218 223 225 228 228 230 233 233 232 239 246 251 256 257 259 262 262 265 270 269
187 189 190 190 191 195 199 207 217 220 220 222 221 216 220 226 216 212 215 219 219 217 216 228 230 231 234 235 234 233 230 232 235 238 243 249 254 258 263 261 259 262 268
195 192 191 192 194 198 201 204 209 217 224 227 226 224 224 222 220 218 218 220 223 220 226 234 236 236 236 236 236 236 236 232 228 234 240 244 248 253 256 259 259 260 265
201 197 195 198 199 201 203 206 207 207 209 218 224 225 225 225 223 222 221 220 226 224 229 235 237 237 236 236 235 234 235 231 226 231 236 239 240 245 250 254 256 259 266
201 201 201 201 201 204 204 205 208 211 216 217 211 218 222 225 226 226 220 223 226 227 228 233 235 236 235 234 233 232 231 231 230 229 235 236 236 239 246 251 256 260 261
208 206 199 200 201 203 205 207 210 213 216 218 220 216 203 207 218 220 219 223 227 231 231 232 232 232 231 231 230 227 228 229 228 228 232 234 233 235 242 247 251 257 258
208 207 204 205 208 207 208 212 214 215 217 221 224 218 204 207 217 220 220 223 226 229 230 231 231 229 228 227 226 225 226 230 228 227 229 230 231 234 240 244 248 251 256
210 209 206 210 211 212 215 216 219 221 223 226 229 223 220 220 224 226 226 227 228 229 229 229 230 229 225 222 221 222 224 228 227 224 227 228 228 233 238 241 245 249 252
215 214 214 215 215 219 220 220 221 224 227 228 228 222 218 222 226 228 229 230 228 227 226 225 230 231 228 224 222 221 224 226 225 221 223 227 228 232 234 238 242 248 250
221 221 222 221 219 222 225 225 226 228 230 231 230 229 228 228 231 232 232 232 230 229 227 226 230 232 228 226 226 226 228 229 225 223 222 226 230 234 236 240 244 247 250
228 227 227 227 225 226 230 232 232 232 233 233 234 235 235 234 234 235 234 232 231 232 231 229 232 234 233 231 230 229 230 230 227 225 222 225 232 233 237 241 244 250 251
242 240 239 237 235 234 234 236 236 236 237 237 237 238 238 237 238 238 237 234 235 235 236 234 233 234 235 235 236 235 236 237 235 232 229 231 233 236 237 242 247 249 255
Height
1511 1512 1513 1513 1513 1513 1513 1512 1512 1511 1511 1510 1510 1509 1509 1508 1508 1508 1507 1507 1507 1506 1506 1506 1506 1506 1505 1505 1505 1505 1505 1506 1506 1505 1505 1504 1503 1502 1501 1500 1500 1499 1498
1508 1509 1509 1509 1509 1509 1508 1508 1508 1507 1507 1507 1506 1506 1505 1505 1504 1504 1504 1503 1503 1503 1503 1503 1503 1503 1503 1502 1502 1502 1502 1503 1503 1502 1502 1501 1501 1500 1499 1498 1497 1496 1495
1505 1505 1506 1506 1505 1505 1505 1504 1504 1504 1503 1503 1503 1502 1502 1501 1501 1501 1501 1500 1501 1501 1501 1501 1501 1501 1500 1500 1500 1500 1500 1500 1500 1500 1499 1499 1498 1497 1497 1496 1495 1494 1493
1501 1502 1502 1502 1502 1502 1501 1501 1501 1501 1500 1500 1500 1499 1499 1499 1498 1498 1498 1498 1499 1499 1499 1499 1499 1499 1499 1499 1498 1498 1498 1498 1498 1497 1497 1497 1496 1495 1495 1494 1493 1492 1490
1498 1498 1499 1499 1498 1498 1498 1498 1498 1498 1498 1497 1497 1497 1497 1497 1497 1497 1497 1497 1497 1497 1497 1497 1497 1497 1497 1497 1497 1496 1496 1496 1496 1495 1495 1495 1494 1493 1493 1492 1491 1490 1488
1494 1494 1495 1495 1495 1495 1495 1495 1495 1495 1495 1495 1495 1495 1495 1495 1495 1495 1495 1496 1495 1495 1496 1496 1496 1495 1495 1495 1495 1495 1495 1494 1494 1494 1493 1493 1492 1492 1491 1490 1489 1488 1487
1490 1490 1491 1491 1491 1491 1491 1492 1492 1492 1493 1493 1493 1493 1493 1493 1494 1494 1494 1494 1494 1494 1494 1494 1494 1494 1494 1494 1493 1493 1493 1493 1493 1493 1492 1492 1491 1490 1489 1488 1487 1486 1485
1485 1486 1487 1487 1488 1488 1488 1489 1489 1490 1490 1491 1491 1492 1492 1492 1492 1492 1492 1493 1493 1493 1493 1493 1493 1493 1493 1492 1492 1492 1491 1491 1491 1490 1490 1490 1489 1488 1487 1487 1486 1485 1483
1481 1482 1483 1483 1484 1484 1485 1486 1487 1487 1488 1489 1489 1490 1490 1490 1490 1491 1491 1491 1491 1491 1492 1492 1492 1492 1492 1491 1491 1490 1490 1490 1489 1489 1488 1488 1487 1486 1486 1485 1484 1483 1482
1476 1478 1479 1480 1480 1481 1482 1483 1484 1485 1486 1487 1487 1488 1488 1489 1489 1489 1490 1490 1490 1490 1490 1490 1490 1490 1490 1490 1489 1489 1489 1488 1488 1487 1487 1486 1485 1484 1484 1483 1482 1481 1479
1473 1474 1475 1476 1477 1478 1479 1480 1482 1483 1484 1485 1485 1486 1486 1487 1487 1488 1488 1488 1489 1489 1489 1489 1488 1488 1488 1488 1488 1487 1487 1487 1486 1485 1485 1484 1483 1482 1481 1480 1479 1478 1477
1468 1470 1471 1472 1473 1474 1476 1477 1479 1480 1481 1482 1483 1484 1484 1485 1485 1486 1486 1487 1487 1487 1487 1487 1486 1486 1486 1486 1485 1485 1485 1484 1484 1483 1483 1482 1481 1480 1479 1478 1476 1475 1474
1465 1466 1467 1469 1470 1471 1473 1474 1476 1477 1478 1479 1480 1481 1482 1483 1483 1483 1484 1484 1484 1484 1484 1484 1484 1484 1483 1483 1483 1483 1482 1482 1481 1480 1480 1479 1478 1477 1476 1474 1473 1472 1470
1461 1462 1463 1465 1466 1467 1469 1471 1472 1473 1474 1476 1477 1478 1479 1479 1480 1481 1481 1481 1482 1482 1482 1481 1481 1481 1480 1480 1480 1479 1479 1478 1478 1477 1476 1475 1474 1473 1472 1471 1469 1468 1466
1457 1458 1459 1461 1462 1464 1465 1467 1468 1470 1471 1473 1474 1475 1476 1476 1477 1478 1478 1478 1479 1479 1478 1478 1478 1477 1477 1477 1476 1476 1475 1475 1474 1473 1472 1471 1470 1469 1468 1467 1465 1463 1462
1452 1453 1455 1456 1458 1460 1461 1463 1464 1466 1467 1468 1470 1471 1472 1473 1474 1474 1474 1475 1475 1475 1475 1474 1474 1474 1473 1473 1472 1472 1471 1471 1470 1469 1468 1467 1466 1465 1464 1462 1461 1459 1458
1448 1449 1451 1452 1454 1455 1457 1458 1460 1462 1463 1464 1465 1466 1467 1468 1469 1470 1470 1471 1471 1471 1470 1470 1469 1469 1469 1468 1468 1467 1467 1466 1465 1464 1463 1462 1461 1460 1459 1457 1456 1455 1453
1444 1445 1446 1448 1449 1451 1453 1454 1455 1457 1458 1458 1460 1461 1463 1464 1465 1465 1466 1466 1465 1465 1465 1465 1464 1464 1464 1463 1463 1462 1462 1461 1460 1459 1458 1457 1456 1455 1454 1452 1451 1450 1448
1439 1440 1442 1443 1445 1446 1448 1449 1450 1451 1452 1454 1455 1456 1457 1458 1459 1460 1460 1460 1459 1459 1459 1459 1459 1459 1458 1458 1457 1457 1456 1455 1455 1454 1453 1452 1451 1450 1448 1447 1446 1444 1442
1435 1436 1437 1438 1440 1441 1442 1443 1445 1446 1447 1448 1449 1450 1451 1452 1452 1453 1453 1453 1453 1453 1453 1453 1453 1453 1452 1452 1451 1450 1450 1449 1448 1448 1447 1446 1445 1444 1442 1441 1440 1438 1436
1430 1431 1432 1433 1434 1435 1436 1438 1439 1440 1440 1441 1443 1444 1445 1445 1445 1446 1446 1446 1446 1446 1446 1446 1446 1446 1445 1445 1444 1443 1443 1442 1442 1441 1440 1439 1438 1437 1436 1435 1433 1432 1430
1425 1426 1426 1427 1428 1429 1430 1431 1432 1433 1434 1435 1436 1437 1438 1438 1438 1438 1438 1439 1439 1439 1439 1439 1438 1438 1438 1437 1437 1436 1435 1435 1434 1434 1433 1432 1431 1430 1429 1428 1427 1425 1424
1420 1421 1421 1422 1422 1423 1424 1425 1426 1426 1427 1428 1428 1429 1430 1430 1430 1430 1431 1431 1431 1431 1431 1430 1430 1430 1430 1429 1429 1428 1427 1427 1427 1426 1425 1424 1424 1423 1422 1421 1420 1418 1417
1416 1416 1416 1416 1417 1417 1418 1418 1419 1419 1420 1420 1421 1421 1421 1422 1422 1422 1423 1423 1423 1422 1422 1422 1421 1421 1421 1421 1420 1420 1419 1419 1419 1418 1418 1417 1416 1415 1414 1413 1412 1411 1410
1411 1411 1411 1411 1411 1411 1411 1412 1412 1412 1412 1413 1413 1413 1413 1413 1413 1414 1414 1414 1414 1414 1413 1413 1413 1412 1412 1412 1412 1411 1411 1411 1410 1410 1409 1409 1408 1407 1406 1405 1405 1404 1402
1406 1406 1405 1405 1405 1405 1405 1405 1405 1405 1405 1405 1405 1405 1405 1405 1405 1405 1405 1405 1405 1405 1405 1404 1404 1404 1404 1403 1403 1403 1403 1402 1402 1401 1401 1400 1400 1399 1399 1398 1397 1396 1395